カタログに戻る

CZ-6A DEB

運用中PO
NORAD 61430·DEBRIS·🇨🇳 China

打ち上げ Aug 6, 2024 から Taiyuan Satellite Launch Center

Loading…

次のパス (今後24時間)

TLE

最新Source: Space-Track

元期: Sep 14, 2026, 11:34 UTC

1 61430U 24140YX  26257.48233362  .00000344  00000-0  17370-3 0  9990
2 61430  89.0436 269.9629 0076733 275.6674  83.5766 14.12702318106373

AllMySatでCZ-6A DEBをリアルタイム追跡

Download on the App Store